15min,AgWx,beryljct,423,21NOV2019:00:00:00,36.8,12.7,35.3,35.0,35.2,35.3,35.0,98,98,97,0.673,34.6,34.7,34.3,2.565,3.8,324,42,7.0,-0.00004,-0.00004,41.9,44.5,25,0,.,.,7.38,0.00,0.00
15min,AgWx,beryljct,423,21NOV2019:00:15:00,36.9,12.7,35.3,35.1,35.0,35.1,35.0,98,98,98,0.675,34.4,34.5,34.4,4.121,3.4,312,21,5.1,-0.00004,-0.00005,41.8,44.5,25,0,.,.,7.38,0.00,0.00
15min,AgWx,beryljct,423,21NOV2019:00:30:00,36.9,12.7,35.1,35.0,35.0,35.1,34.9,98,98,98,0.674,34.4,34.5,34.3,6.335,4.2,317,11,6.3,-0.00004,-0.00004,41.7,44.4,25,0,.,.,7.38,0.00,0.00
15min,AgWx,beryljct,423,21NOV2019:00:45:00,36.8,12.7,34.9,34.7,34.9,35.0,34.7,98,98,98,0.666,34.3,34.5,34.1,5.13,6.0,350,17,8.8,-0.00003,-0.00003,41.7,44.4,25,0,.,.,7.39,0.01,0.00
15min,AgWx,beryljct,423,21NOV2019:01:00:00,36.7,12.7,34.9,34.6,34.6,34.8,34.4,98,98,98,0.666,34.1,34.3,33.9,5.086,4.8,284,20,7.5,-0.00003,-0.00004,41.6,44.4,26,0,.,.,7.38,0.00,0.00
15min,AgWx,beryljct,423,21NOV2019:01:15:00,36.6,12.68,34.7,34.4,34.6,34.7,34.4,98,98,98,0.660,34.1,34.2,33.9,4.538,4.8,318,10,7.3,-0.00003,-0.00004,41.5,44.3,25,0,.,.,7.39,0.00,0.00
15min,AgWx,beryljct,423,21NOV2019:01:30:00,36.5,12.69,34.6,34.4,34.3,34.4,34.2,98,98,98,0.660,33.9,34.0,33.7,5.437,5.9,304,10,8.2,-0.00003,-0.00003,41.5,44.2,25,0,.,.,7.38,0.00,0.00
15min,AgWx,beryljct,423,21NOV2019:01:45:00,36.4,12.7,34.3,34.1,34.1,34.4,34.0,98,98,98,0.654,33.7,34.0,33.5,2.784,3.9,295,11,6.4,-0.00004,-0.00004,41.4,44.2,25,0,.,.,7.38,0.00,0.00
15min,AgWx,beryljct,423,21NOV2019:02:00:00,36.2,12.69,34.2,34.0,34.0,34.1,34.0,98,98,98,0.648,33.6,33.7,33.5,3.223,2.9,322,25,4.3,-0.00005,-0.00006,41.4,44.2,25,0,.,.,7.38,0.00,0.00
15min,AgWx,beryljct,423,21NOV2019:02:15:00,36.1,12.68,34.1,34.0,34.0,34.1,33.9,98,98,98,0.650,33.5,33.7,33.4,3.201,2.8,299,21,3.8,-0.00005,-0.00006,41.3,44.1,25,0,.,.,7.39,0.00,0.00
15min,AgWx,beryljct,423,21NOV2019:02:30:00,35.9,12.68,34.0,33.9,33.9,34.0,33.8,98,98,98,0.645,33.3,33.5,33.2,1.25,1.0,328,14,2.9,-0.00007,-0.00009,41.2,44.1,25,0,.,.,7.38,0.00,0.00
15min,AgWx,beryljct,423,21NOV2019:02:45:00,35.6,12.69,33.7,33.5,33.6,33.8,33.4,98,99,98,0.638,33.1,33.3,33.0,0,1.2,314,20,3.4,-0.00006,-0.00009,41.2,44.0,25,0,.,.,7.38,0.00,0.00
15min,AgWx,beryljct,423,21NOV2019:03:00:00,35.4,12.69,33.5,33.1,33.4,33.6,33.1,99,99,98,0.630,33.1,33.3,32.8,1.228,0.5,134,39,1.8,-0.00007,-0.00011,41.1,44.0,24,0,.,.,7.38,0.00,0.00
15min,AgWx,beryljct,423,21NOV2019:03:15:00,35.1,12.68,33.2,33.0,33.2,33.3,32.9,99,99,99,0.627,32.8,33.0,32.6,0,1.8,88,7.6,2.7,-0.00006,-0.00007,41.0,43.9,24,0,.,.,7.38,0.00,0.00
15min,AgWx,beryljct,423,21NOV2019:03:30:00,34.5,12.68,32.9,33.0,33.0,33.1,32.8,99,99,99,0.631,32.8,32.9,32.6,1.337,0.4,97,0.1,1.3,-0.00007,-0.00011,41.0,43.9,25,0,.,.,7.39,0.00,0.00
15min,AgWx,beryljct,423,21NOV2019:03:45:00,34.4,12.67,32.4,32.1,32.4,32.9,32.1,99,100,99,0.611,32.2,32.7,32.0,1.556,3.0,84,7.0,5.0,-0.00005,-0.00006,40.9,43.9,24,0,.,.,7.38,0.00,0.00
15min,AgWx,beryljct,423,21NOV2019:04:00:00,34.4,12.68,32.5,32.1,32.2,32.3,32.1,100,100,100,0.614,32.1,32.3,32.0,1.469,1.5,121,13,2.7,-0.00006,-0.00008,40.9,43.8,24,0,.,.,7.38,0.00,0.00
15min,AgWx,beryljct,423,21NOV2019:04:15:00,34.6,12.68,32.7,32.3,32.2,32.4,32.1,100,100,100,0.619,32.2,32.4,32.1,1.403,1.6,219,54,3.6,-0.00006,-0.00008,40.8,43.8,24,0,.,.,7.39,0.00,0.00
15min,AgWx,beryljct,423,21NOV2019:04:30:00,34.7,12.67,33.2,33.0,32.6,33.0,32.3,100,100,100,0.636,32.6,33.0,32.3,2.433,1.2,239,31,2.8,-0.00007,-0.00009,40.7,43.8,24,0,.,.,7.39,0.00,0.00
15min,AgWx,beryljct,423,21NOV2019:04:45:00,34.9,12.67,33.5,33.1,33.1,33.2,32.9,100,100,100,0.639,33.1,33.2,32.9,2.126,1.8,228,9.0,3.2,-0.00006,-0.00008,40.6,43.7,24,0,.,.,7.39,0.00,0.00
15min,AgWx,beryljct,423,21NOV2019:05:00:00,35.0,12.68,33.2,33.1,33.1,33.3,33.0,100,100,100,0.637,33.1,33.3,33.0,4.187,2.0,287,56,4.5,-0.00006,-0.00007,40.6,43.7,24,0,.,.,7.38,0.00,0.00
15min,AgWx,beryljct,423,21NOV2019:05:15:00,35.1,12.68,32.6,32.7,32.9,33.1,32.7,100,100,100,0.629,32.9,33.1,32.7,3.573,3.9,337,12,5.3,-0.00004,-0.00005,40.5,43.7,24,0,.,.,7.38,0.00,0.00
15min,AgWx,beryljct,423,21NOV2019:05:30:00,35.1,12.68,32.8,32.4,32.6,32.7,32.4,100,100,100,0.621,32.6,32.7,32.4,2.872,3.6,327,11,4.6,-0.00005,-0.00005,40.5,43.6,24,0,.,.,7.38,0.00,0.00
15min,AgWx,beryljct,423,21NOV2019:05:45:00,35.0,12.68,33.0,32.6,32.5,32.7,32.4,100,100,100,0.624,32.5,32.7,32.4,1.535,1.5,334,34,3.2,-0.00006,-0.00008,40.4,43.6,24,0,.,.,7.39,0.00,0.00
15min,AgWx,beryljct,423,21NOV2019:06:00:00,35.0,12.68,33.0,32.6,32.7,32.9,32.6,100,100,100,0.626,32.7,32.9,32.6,2.521,1.9,353,28,3.5,-0.00006,-0.00007,40.4,43.5,24,0,.,.,7.39,0.00,0.00
15min,AgWx,beryljct,423,21NOV2019:06:15:00,35.0,12.67,32.7,32.6,32.6,32.7,32.4,100,100,100,0.624,32.6,32.7,32.4,3.617,2.4,12,10,3.6,-0.00005,-0.00007,40.4,43.5,24,0,.,.,7.39,0.00,0.00
15min,AgWx,beryljct,423,21NOV2019:06:30:00,34.9,12.67,32.6,32.4,32.5,32.6,32.4,100,100,100,0.621,32.5,32.6,32.4,3.157,2.9,8.6,21,4.0,-0.00005,-0.00006,40.3,43.4,24,0,.,.,7.39,0.00,0.00
15min,AgWx,beryljct,423,21NOV2019:06:45:00,34.7,12.68,32.6,32.4,32.4,32.6,32.3,100,100,100,0.620,32.4,32.6,32.3,4.472,3.7,357,8.3,4.9,0.00000,0.00001,40.3,43.4,24,0,.,.,7.39,0.00,0.00
15min,AgWx,beryljct,423,21NOV2019:07:00:00,34.7,12.68,32.8,32.6,32.5,32.6,32.3,100,100,100,0.624,32.4,32.6,32.3,2.828,2.8,327,18,4.5,0.00000,0.00001,40.2,43.4,24,0,.,.,7.38,0.00,0.00
15min,AgWx,beryljct,423,21NOV2019:07:15:00,34.6,12.67,33.2,32.9,32.7,32.9,32.5,100,100,100,0.633,32.7,32.9,32.5,2.74,2.5,309,23,3.8,0.00001,0.00001,40.2,43.3,24,0,.,.,7.39,0.00,0.00
15min,AgWx,beryljct,423,21NOV2019:07:30:00,34.7,12.67,33.4,33.0,33.0,33.2,32.9,100,100,100,0.636,33.0,33.1,32.9,2.126,2.5,342,6.4,4.2,0.00002,0.00002,40.2,43.3,24,3,.,.,7.39,0.00,0.00
15min,AgWx,beryljct,423,21NOV2019:07:45:00,34.7,12.68,33.2,32.9,33.0,33.2,32.9,100,100,100,0.632,33.0,33.2,32.8,1.776,1.8,18,18,2.4,0.00005,0.00005,40.1,43.3,24,11,.,.,7.39,0.00,0.00
15min,AgWx,beryljct,423,21NOV2019:08:00:00,34.7,12.7,33.3,33.0,32.9,33.1,32.9,100,100,100,0.636,32.9,33.1,32.8,2.433,1.4,23,36,2.7,0.00009,0.00009,40.1,43.2,24,20,.,.,7.39,0.00,0.00
15min,AgWx,beryljct,423,21NOV2019:08:15:00,34.9,12.73,33.7,33.2,33.2,33.4,33.0,100,100,100,0.641,33.2,33.4,33.0,0,1.9,6.8,18,4.2,0.00015,0.00016,40.0,43.2,24,37,.,.,7.38,0.00,0.00
15min,AgWx,beryljct,423,21NOV2019:08:30:00,35.1,12.77,33.8,33.6,33.5,33.7,33.3,100,100,100,0.651,33.5,33.7,33.3,0,1.0,345,9.3,2.4,0.00024,0.00025,40.0,43.2,24,54,.,.,7.39,0.00,0.00
15min,AgWx,beryljct,423,21NOV2019:08:45:00,35.4,12.85,34.3,34.1,33.8,34.1,33.6,100,100,100,0.664,33.8,34.1,33.6,0,0.7,347,7.8,2.0,0.00037,0.00040,40.0,43.1,24,83,.,.,7.38,0.00,0.00
15min,AgWx,beryljct,423,21NOV2019:09:00:00,36.0,12.92,34.4,34.2,34.2,34.6,34.0,100,100,100,0.667,34.2,34.6,34.0,1.315,1.4,84,14,3.1,0.00044,0.00047,39.9,43.1,24,106,.,.,7.38,0.00,0.00
15min,AgWx,beryljct,423,21NOV2019:09:15:00,36.5,12.94,34.5,34.2,34.2,34.4,34.0,100,100,100,0.667,34.2,34.4,34.0,0.263,1.0,57,7.3,2.1,0.00051,0.00055,39.9,43.1,24,124,.,.,7.38,0.00,0.00
15min,AgWx,beryljct,423,21NOV2019:09:30:00,37.0,12.96,35.3,34.7,34.5,34.8,34.2,100,100,100,0.680,34.5,34.8,34.2,0.833,0.6,48,13,2.3,0.00052,0.00056,40.0,43.0,24,119,.,.,7.38,0.00,0.00
15min,AgWx,beryljct,423,21NOV2019:09:45:00,37.5,12.94,34.8,34.9,34.8,35.1,34.5,100,100,100,0.686,34.8,35.1,34.5,2.258,1.7,6.0,22,3.6,0.00050,0.00053,40.0,43.0,24,115,.,.,7.38,0.00,0.00
15min,AgWx,beryljct,423,21NOV2019:10:00:00,37.8,13.04,35.7,35.4,34.9,35.4,34.7,100,100,100,0.701,34.9,35.4,34.7,4.056,3.6,360,14,5.0,0.00054,0.00057,40.1,42.9,24,141,.,.,7.38,0.00,0.00
15min,AgWx,beryljct,423,21NOV2019:10:15:00,38.3,13.17,36.1,35.8,35.4,35.8,35.0,100,100,100,0.712,35.4,35.8,35.0,5.919,4.7,347,16,6.3,0.00063,0.00066,40.2,42.9,23,177,.,.,7.38,0.00,0.00
15min,AgWx,beryljct,423,21NOV2019:10:30:00,38.8,13.15,35.5,35.5,35.7,36.2,35.3,100,100,100,0.702,35.7,36.2,35.3,3.223,3.8,7.9,28,6.8,0.00060,0.00064,40.3,42.9,24,157,.,.,7.38,0.00,0.00
15min,AgWx,beryljct,423,21NOV2019:10:45:00,39.2,13.13,36.6,36.0,35.8,36.3,35.4,100,100,100,0.716,35.8,36.3,35.4,1.359,3.1,33,18,4.4,0.00056,0.00059,40.4,42.9,24,136,.,.,7.38,0.00,0.00
15min,AgWx,beryljct,423,21NOV2019:11:00:00,39.4,13.1,36.4,36.4,36.0,36.5,35.6,100,100,100,0.727,36.0,36.5,35.6,4.341,2.9,39,14,4.4,0.00049,0.00052,40.5,42.8,24,116,.,.,7.38,0.00,0.00
15min,AgWx,beryljct,423,21NOV2019:11:15:00,39.8,13.31,36.6,36.5,36.4,36.8,36.2,100,100,100,0.732,36.4,36.8,36.2,3.902,4.2,50,13,6.3,0.00073,0.00078,40.6,42.8,23,198,.,.,7.38,0.00,0.00
15min,AgWx,beryljct,423,21NOV2019:11:30:00,40.2,13.31,36.3,36.3,36.7,37.0,36.3,100,100,100,0.726,36.7,37.0,36.3,3.946,4.0,49,16,5.8,0.00069,0.00073,40.8,42.8,24,180,.,.,7.38,0.00,0.00
15min,AgWx,beryljct,423,21NOV2019:11:45:00,40.6,13.39,36.5,36.6,36.7,37.2,36.4,100,100,100,0.732,36.7,37.2,36.4,4.231,3.9,30,19,5.2,0.00071,0.00076,40.9,42.8,23,187,.,.,7.38,0.00,0.00
15min,AgWx,beryljct,423,21NOV2019:12:00:00,40.8,13.39,36.7,37.2,37.1,37.8,36.4,100,100,97,0.732,37.1,37.8,36.4,4.494,4.6,34,20,6.4,0.00075,0.00079,41.0,42.8,23,202,.,.,7.38,0.00,0.00
15min,AgWx,beryljct,423,21NOV2019:12:15:00,41.0,13.46,36.6,37.4,37.5,37.8,37.2,93,97,91,0.689,35.7,36.7,34.9,6.555,5.4,47,12,7.8,0.00077,0.00086,41.2,42.8,23,198,.,.,7.38,0.00,0.00
15min,AgWx,beryljct,423,21NOV2019:12:30:00,41.1,13.49,38.2,37.9,37.6,38.0,37.3,91,92,90,0.691,35.3,35.8,34.8,6.248,6.3,66,11,8.0,0.00083,0.00094,41.3,42.8,23,219,.,.,7.38,0.00,0.00
15min,AgWx,beryljct,423,21NOV2019:12:45:00,41.1,13.35,38.3,38.0,38.1,38.4,37.8,89,90,88,0.686,35.1,35.7,34.5,4.669,5.0,61,12,7.6,0.00070,0.00081,41.5,42.8,23,159,.,.,7.38,0.00,0.00
15min,AgWx,beryljct,423,21NOV2019:13:00:00,41.1,13.32,38.6,38.2,38.0,38.3,37.8,88,90,86,0.673,34.9,35.4,34.3,4.713,5.0,62,19,8.5,0.00058,0.00069,41.6,42.8,23,121,.,.,7.38,0.00,0.00
15min,AgWx,beryljct,423,21NOV2019:13:15:00,41.1,13.36,38.9,38.8,38.6,39.1,38.1,87,89,86,0.707,35.1,36.1,34.3,5.612,4.6,57,15,7.1,0.00076,0.00087,41.8,42.8,23,177,.,.,7.38,0.00,0.00
15min,AgWx,beryljct,423,21NOV2019:13:30:00,40.9,13.47,39.0,38.8,38.5,38.8,38.3,87,89,87,0.710,35.1,35.8,34.6,6.05,5.4,57,13,7.7,0.00078,0.00091,41.9,42.8,23,195,.,.,7.38,0.00,0.00
15min,AgWx,beryljct,423,21NOV2019:13:45:00,40.9,13.39,38.9,38.9,38.8,39.1,38.7,88,89,87,0.710,35.6,36.3,35.1,5.546,5.4,44,12,8.1,0.00073,0.00085,42.0,42.8,23,182,.,.,7.38,0.00,0.00
15min,AgWx,beryljct,423,21NOV2019:14:00:00,41.1,13.58,39.3,39.6,39.2,39.8,38.8,88,90,87,0.717,35.9,37.0,35.1,6.379,5.2,47,11,7.8,0.00073,0.00084,42.1,42.8,23,188,.,.,7.39,0.00,0.00
15min,AgWx,beryljct,423,21NOV2019:14:15:00,41.5,13.6,40.5,40.0,39.8,40.1,39.4,86,89,84,0.709,36.0,36.9,35.4,5.217,5.7,34,11,7.9,0.00084,0.00099,42.2,42.8,23,239,.,.,7.38,0.00,0.00
15min,AgWx,beryljct,423,21NOV2019:14:30:00,42.0,13.58,40.5,40.2,40.1,40.4,39.8,85,86,83,0.705,35.8,36.4,35.2,4.56,4.8,32,14,6.8,0.00076,0.00090,42.4,42.8,23,216,.,.,7.38,0.00,0.00
15min,AgWx,beryljct,423,21NOV2019:14:45:00,42.5,13.69,40.3,40.6,40.5,40.7,40.2,83,84,82,0.708,35.7,36.2,35.3,3.814,4.0,35,21,5.9,0.00071,0.00084,42.5,42.9,23,217,.,.,7.38,0.00,0.00
15min,AgWx,beryljct,423,21NOV2019:15:00:00,43.1,13.47,40.9,41.0,40.9,41.3,40.5,83,84,81,0.708,36.2,36.9,35.5,5.524,3.7,19,19,6.9,0.00059,0.00071,42.6,42.9,23,202,.,.,7.38,0.00,0.00
15min,AgWx,beryljct,423,21NOV2019:15:15:00,43.5,13.35,41.0,40.8,40.9,41.1,40.8,82,83,80,0.699,35.9,36.4,35.3,5.327,5.2,46,9.9,7.1,0.00040,0.00054,42.8,42.9,23,123,.,.,7.38,0.00,0.00
15min,AgWx,beryljct,423,21NOV2019:15:30:00,43.4,13.31,41.1,41.1,40.9,41.1,40.7,80,81,79,0.701,35.2,35.7,34.6,3.376,4.0,29,14,5.8,0.00023,0.00035,42.9,42.9,23,110,.,.,7.38,0.00,0.00
15min,AgWx,beryljct,423,21NOV2019:15:45:00,43.2,13.29,41.4,41.0,41.0,41.2,41.0,80,81,78,0.696,35.3,35.9,34.8,2.938,3.2,47,14,4.2,0.00006,0.00016,43.0,43.0,23,85,.,.,7.38,0.00,0.00
15min,AgWx,beryljct,423,21NOV2019:16:00:00,42.9,13.2,41.3,41.1,41.1,41.2,41.0,81,83,79,0.709,35.7,36.2,35.1,3.091,2.9,43,13,4.8,-0.00010,-0.00003,43.2,43.0,23,53,.,.,7.38,0.00,0.00
15min,AgWx,beryljct,423,21NOV2019:16:15:00,42.7,13.13,41.3,41.0,41.1,41.3,41.0,80,82,78,0.705,35.4,35.9,34.6,2.784,3.5,25,7.9,4.5,-0.00016,-0.00008,43.2,43.0,23,32,.,.,7.38,0.00,0.00
15min,AgWx,beryljct,423,21NOV2019:16:30:00,42.5,13.1,40.8,40.6,40.9,41.1,40.6,81,83,80,0.691,35.4,36.3,34.9,5.744,5.2,74,17,7.9,0.00006,0.00008,43.3,43.1,23,26,.,.,7.38,0.00,0.00
15min,AgWx,beryljct,423,21NOV2019:16:45:00,42.2,13.07,40.1,40.0,40.4,40.7,40.0,83,84,80,0.699,35.5,35.8,34.9,2.674,4.3,84,8.3,6.9,0.00003,0.00005,43.3,43.1,23,24,.,.,7.38,0.00,0.00
15min,AgWx,beryljct,423,21NOV2019:17:00:00,41.7,13.04,39.5,39.3,39.7,40.0,39.3,86,88,83,0.722,36.0,36.5,35.4,5.261,3.9,150,22,6.0,-0.00001,-0.00000,43.3,43.1,23,17,.,.,7.38,0.00,0.00
15min,AgWx,beryljct,423,21NOV2019:17:15:00,40.9,13,38.8,38.7,39.0,39.4,38.7,89,91,88,0.723,36.1,36.3,35.9,4.077,4.0,169,9.9,5.3,-0.00003,-0.00003,43.3,43.2,23,11,.,.,7.39,0.00,0.00
15min,AgWx,beryljct,423,21NOV2019:17:30:00,39.8,12.96,37.8,37.6,38.0,38.7,37.6,93,94,91,0.715,36.1,36.3,35.9,4.779,4.1,189,3.8,5.6,-0.00005,-0.00006,43.2,43.2,23,3,.,.,7.39,0.00,0.00
15min,AgWx,beryljct,423,21NOV2019:17:45:00,39.0,12.95,37.8,37.6,37.7,37.8,37.5,93,94,93,0.708,35.9,36.1,35.7,3.968,4.4,192,8.6,5.9,-0.00006,-0.00006,43.2,43.3,23,0,.,.,7.39,0.00,0.00
15min,AgWx,beryljct,423,21NOV2019:18:00:00,38.4,12.91,36.7,36.7,37.2,37.7,36.7,93,94,93,0.693,35.5,35.8,35.2,4.604,4.3,178,8.2,5.3,-0.00006,-0.00007,43.1,43.3,23,0,.,.,7.39,0.00,0.00
15min,AgWx,beryljct,423,21NOV2019:18:15:00,38.0,12.9,36.9,36.6,36.6,36.8,36.6,94,94,93,0.687,35.1,35.2,34.9,5.963,5.3,171,6.8,6.7,-0.00005,-0.00005,43.0,43.3,23,0,.,.,7.39,0.00,0.00
15min,AgWx,beryljct,423,21NOV2019:18:30:00,37.8,12.87,36.8,36.5,36.5,36.6,36.5,94,94,94,0.686,35.0,35.0,34.9,7.059,5.5,170,5.4,7.5,-0.00005,-0.00005,42.8,43.4,23,0,.,.,7.39,0.00,0.00
15min,AgWx,beryljct,423,21NOV2019:18:45:00,37.7,12.83,36.9,36.6,36.6,36.7,36.5,94,94,93,0.680,34.9,35.1,34.7,5.568,5.7,176,8.0,7.4,-0.00004,-0.00004,42.7,43.4,23,0,.,.,7.39,0.00,0.00
15min,AgWx,beryljct,423,21NOV2019:19:00:00,37.6,12.82,36.9,36.6,36.6,36.7,36.6,93,94,93,0.686,34.9,35.0,34.7,4.45,4.4,181,5.9,6.9,-0.00006,-0.00006,42.6,43.4,23,0,.,.,7.39,0.00,0.00
15min,AgWx,beryljct,423,21NOV2019:19:15:00,37.7,12.79,36.9,36.6,36.7,36.8,36.6,92,93,92,0.675,34.7,34.9,34.5,5.239,5.2,174,6.1,6.4,-0.00004,-0.00004,42.5,43.5,23,0,.,.,7.39,0.00,0.00
15min,AgWx,beryljct,423,21NOV2019:19:30:00,37.7,12.79,36.7,36.5,36.6,36.7,36.5,92,93,92,0.676,34.5,34.7,34.5,4.012,4.8,170,5.2,6.0,-0.00005,-0.00005,42.4,43.5,23,0,.,.,7.39,0.00,0.00
15min,AgWx,beryljct,423,21NOV2019:19:45:00,37.7,12.77,36.8,36.6,36.5,36.6,36.4,93,93,93,0.680,34.6,34.7,34.5,4.143,4.1,160,6.2,5.2,-0.00006,-0.00007,42.2,43.5,23,0,.,.,7.39,0.00,0.00
15min,AgWx,beryljct,423,21NOV2019:20:00:00,37.8,12.76,36.7,36.4,36.5,36.6,36.4,93,93,93,0.681,34.7,34.8,34.6,4.669,4.8,165,8.3,6.3,-0.00005,-0.00005,42.1,43.5,23,0,.,.,7.39,0.00,0.00
15min,AgWx,beryljct,423,21NOV2019:20:15:00,37.8,12.74,36.7,36.6,36.5,36.6,36.4,94,94,93,0.686,34.9,35.1,34.7,4.187,4.3,172,5.9,6.1,-0.00006,-0.00007,42.0,43.5,23,0,.,.,7.39,0.00,0.00
15min,AgWx,beryljct,423,21NOV2019:20:30:00,37.8,12.75,36.7,36.3,36.4,36.6,36.3,94,95,94,0.686,34.9,35.0,34.8,4.538,4.0,163,5.3,5.2,-0.00007,-0.00007,41.9,43.5,23,0,.,.,7.38,0.00,0.00
15min,AgWx,beryljct,423,21NOV2019:20:45:00,37.7,12.74,36.8,36.4,36.3,36.5,36.2,95,95,94,0.689,34.9,35.1,34.8,3.354,4.2,171,11,5.5,-0.00006,-0.00007,41.8,43.5,22,0,.,.,7.39,0.00,0.00
15min,AgWx,beryljct,423,21NOV2019:21:00:00,37.7,12.73,36.9,36.7,36.6,36.8,36.4,94,95,93,0.685,34.9,35.1,34.8,4.735,4.5,169,7.0,6.4,-0.00006,-0.00006,41.8,43.5,23,0,.,.,7.39,0.00,0.00
15min,AgWx,beryljct,423,21NOV2019:21:15:00,37.7,12.71,36.7,36.6,36.6,36.7,36.5,93,93,93,0.684,34.8,34.9,34.7,5.02,5.1,181,6.2,6.5,-0.00005,-0.00005,41.7,43.5,22,0,.,.,7.39,0.00,0.00
15min,AgWx,beryljct,423,21NOV2019:21:30:00,37.7,12.71,36.7,36.4,36.5,36.6,36.4,93,93,93,0.677,34.7,34.8,34.6,5.152,5.4,180,6.1,7.2,-0.00004,-0.00005,41.6,43.5,22,0,.,.,7.39,0.00,0.00
15min,AgWx,beryljct,423,21NOV2019:21:45:00,37.7,12.71,37.0,36.7,36.5,36.7,36.4,93,93,93,0.682,34.7,34.9,34.6,6.708,5.5,180,5.4,6.9,-0.00004,-0.00004,41.5,43.5,22,0,.,.,7.39,0.00,0.00
15min,AgWx,beryljct,423,21NOV2019:22:00:00,37.8,12.7,37.1,36.9,36.8,36.9,36.7,92,93,92,0.686,34.8,34.9,34.7,5.239,5.8,179,6.3,7.4,-0.00003,-0.00003,41.5,43.5,23,0,.,.,7.39,0.00,0.00
15min,AgWx,beryljct,423,21NOV2019:22:15:00,37.9,12.7,37.0,36.8,36.9,37.0,36.8,92,92,92,0.681,34.7,34.9,34.7,5.283,6.0,180,5.2,7.2,-0.00003,-0.00003,41.4,43.5,23,0,.,.,7.39,0.00,0.00
15min,AgWx,beryljct,423,21NOV2019:22:30:00,38.0,12.69,37.2,37.0,36.8,37.0,36.8,92,92,92,0.682,34.7,34.8,34.6,5.897,5.8,182,5.3,6.8,-0.00003,-0.00003,41.3,43.5,22,0,.,.,7.39,0.00,0.00
15min,AgWx,beryljct,423,21NOV2019:22:45:00,38.1,12.69,37.5,37.3,37.1,37.3,36.9,91,92,91,0.682,34.8,34.9,34.7,4.428,5.3,188,5.3,6.9,-0.00004,-0.00004,41.3,43.4,22,0,.,.,7.39,0.00,0.00
15min,AgWx,beryljct,423,21NOV2019:23:00:00,38.2,12.7,37.8,37.6,37.4,37.7,37.3,90,91,89,0.682,34.8,35.0,34.7,6.599,5.1,187,5.9,6.6,-0.00004,-0.00003,41.2,43.4,22,0,.,.,7.39,0.00,0.00
15min,AgWx,beryljct,423,21NOV2019:23:15:00,38.4,12.68,37.9,37.7,37.7,37.8,37.6,89,90,89,0.684,34.8,34.9,34.7,5.502,5.8,187,5.2,7.0,-0.00002,-0.00002,41.2,43.4,23,0,.,.,7.39,0.00,0.00
15min,AgWx,beryljct,423,21NOV2019:23:30:00,38.6,12.69,38.0,37.7,37.7,37.8,37.6,89,90,89,0.682,34.9,35.0,34.8,4.209,4.6,188,5.7,5.7,-0.00004,-0.00004,41.1,43.4,22,0,.,.,7.38,0.00,0.00
15min,AgWx,bigpiney,439,21NOV2019:00:00:00,26.6,12.61,23.2,22.9,23.0,23.2,22.9,82,83,81,0.347,18.3,18.6,18.1,7.234,8.5,182,8.0,11.5,0.00007,0.00009,33.1,34.5,50,0,1,0.0,5.60,0.00,0.00
15min,AgWx,bigpiney,439,21NOV2019:00:15:00,26.3,12.61,23.1,22.8,22.8,22.9,22.7,81,83,80,0.337,17.9,18.4,17.5,8.68,8.9,187,8.4,12.1,0.00008,0.00009,33.1,34.4,50,0,1,0.0,5.60,0.00,0.00
15min,AgWx,bigpiney,439,21NOV2019:00:30:00,26.1,12.6,22.8,22.5,22.6,22.9,22.5,80,81,79,0.331,17.3,17.7,17.1,9.1,9.5,188,7.5,12.7,0.00008,0.00010,33.1,34.5,50,0,1,0.0,5.60,0.00,0.00
15min,AgWx,bigpiney,439,21NOV2019:00:45:00,25.8,12.6,22.9,22.4,22.4,22.5,22.4,81,82,80,0.334,17.5,17.7,17.2,7.848,6.9,190,8.9,10.3,0.00007,0.00009,33.1,34.5,50,0,1,0.0,5.60,0.00,0.00
15min,AgWx,bigpiney,439,21NOV2019:01:00:00,25.7,12.6,22.9,22.6,22.6,22.7,22.4,81,82,80,0.337,17.7,18.0,17.4,8.86,7.3,176,7.3,12.9,0.00007,0.00008,33.1,34.5,50,0,1,0.0,5.60,0.00,0.00
15min,AgWx,bigpiney,439,21NOV2019:01:15:00,25.5,12.59,22.8,22.4,22.4,22.6,22.3,81,83,80,0.334,17.5,17.8,17.2,5.502,6.9,175,8.9,10.7,0.00007,0.00008,33.1,34.5,50,0,1,0.0,5.60,0.00,0.00
15min,AgWx,bigpiney,439,21NOV2019:01:30:00,25.4,12.59,23.0,22.5,22.4,22.5,22.3,82,82,80,0.333,17.6,17.9,17.4,5.437,5.2,183,8.2,8.5,0.00006,0.00008,33.1,34.6,50,0,1,0.0,5.60,0.00,0.00
15min,AgWx,bigpiney,439,21NOV2019:01:45:00,25.3,12.59,23.0,22.6,22.6,22.7,22.5,81,83,80,0.340,17.8,18.0,17.4,4.187,3.9,171,8.1,5.5,0.00005,0.00007,33.1,34.5,50,0,1,0.0,5.60,0.00,0.00
15min,AgWx,bigpiney,439,21NOV2019:02:00:00,25.3,12.58,22.9,22.4,22.6,22.7,22.4,82,83,80,0.335,17.8,18.1,17.4,6.226,5.1,167,7.2,7.3,0.00006,0.00008,33.1,34.5,50,0,1,0.0,5.60,0.00,0.00
15min,AgWx,bigpiney,439,21NOV2019:02:15:00,25.2,12.57,22.8,22.3,22.4,22.6,22.3,80,81,78,0.328,17.1,17.6,16.8,0.855,3.4,171,13,6.4,0.00006,0.00007,33.1,34.5,50,0,1,0.0,5.60,0.00,0.00
15min,AgWx,bigpiney,439,21NOV2019:02:30:00,25.1,12.57,22.8,22.3,22.4,22.5,22.3,80,82,79,0.326,17.2,17.5,16.9,4.494,3.3,154,12,5.4,0.00005,0.00007,33.1,34.5,50,0,1,0.0,5.60,0.00,0.00
15min,AgWx,bigpiney,439,21NOV2019:02:45:00,25.1,12.57,22.7,22.2,22.3,22.5,22.2,79,82,76,0.329,16.9,17.5,16.1,5.349,3.8,159,8.2,6.0,0.00006,0.00008,33.0,34.5,50,0,1,0.0,5.60,0.00,0.00
15min,AgWx,bigpiney,439,21NOV2019:03:00:00,25.0,12.57,22.3,22.0,22.1,22.3,21.9,82,83,80,0.331,17.3,17.6,16.9,5.765,6.0,165,7.2,8.7,0.00006,0.00008,33.1,34.5,50,0,1,0.0,5.60,0.00,0.00
15min,AgWx,bigpiney,439,21NOV2019:03:15:00,24.9,12.57,22.1,21.7,21.8,22.0,21.7,82,83,81,0.330,17.2,17.5,16.9,3.814,6.2,164,7.4,9.7,0.00006,0.00008,33.1,34.5,50,0,1,0.0,5.60,0.00,0.00
15min,AgWx,bigpiney,439,21NOV2019:03:30:00,24.8,12.56,22.0,21.6,21.6,21.7,21.6,83,85,82,0.338,17.4,17.9,17.1,5.941,4.7,153,8.6,6.9,0.00005,0.00006,33.1,34.5,50,0,1,0.0,5.60,0.00,0.00
15min,AgWx,bigpiney,439,21NOV2019:03:45:00,24.7,12.57,22.0,21.7,21.6,21.7,21.5,84,85,84,0.337,17.6,17.8,17.5,7.344,5.4,164,9.4,7.3,0.00005,0.00006,33.1,34.6,50,0,1,0.0,5.60,0.00,0.00
15min,AgWx,bigpiney,439,21NOV2019:04:00:00,24.6,12.56,22.0,21.6,21.6,21.8,21.6,84,85,83,0.329,17.6,17.9,17.2,4.757,4.3,164,13,7.2,0.00005,0.00006,33.1,34.5,50,0,1,0.0,5.60,0.00,0.00
15min,AgWx,bigpiney,439,21NOV2019:04:15:00,24.6,12.57,21.8,21.5,21.5,21.7,21.5,84,85,83,0.329,17.3,17.6,17.1,2.916,2.9,157,16,4.9,0.00004,0.00005,33.1,34.4,50,0,1,0.0,5.60,0.00,0.00
15min,AgWx,bigpiney,439,21NOV2019:04:30:00,24.5,12.56,21.8,21.5,21.4,21.5,21.3,83,85,81,0.327,17.0,17.5,16.6,1.381,2.0,177,11,3.7,0.00003,0.00005,33.1,34.5,50,0,1,0.0,5.60,0.00,0.00
15min,AgWx,bigpiney,439,21NOV2019:04:45:00,24.4,12.56,21.6,21.2,21.4,21.5,21.2,84,85,83,0.328,17.3,17.5,16.9,1.71,3.1,170,13,4.8,0.00004,0.00005,33.1,34.5,50,0,1,0.0,5.60,0.00,0.00
15min,AgWx,bigpiney,439,21NOV2019:05:00:00,24.4,12.56,21.5,21.0,21.2,21.3,21.0,85,86,84,0.332,17.3,17.6,17.1,2.368,1.8,162,12,3.0,0.00003,0.00004,33.1,34.5,50,0,1,0.0,5.60,0.00,0.00
15min,AgWx,bigpiney,439,21NOV2019:05:15:00,24.2,12.56,21.2,20.8,21.0,21.1,20.7,86,86,85,0.329,17.3,17.5,17.1,3.332,2.4,152,11,3.3,0.00003,0.00004,33.1,34.5,50,0,1,0.0,5.60,0.00,0.00
15min,AgWx,bigpiney,439,21NOV2019:05:30:00,24.0,12.56,20.4,20.0,20.2,20.8,19.8,86,87,86,0.322,16.7,17.2,16.5,2.894,2.9,150,13,3.5,0.00003,0.00004,33.1,34.5,50,0,1,0.0,5.60,0.00,0.00
15min,AgWx,bigpiney,439,21NOV2019:05:45:00,23.6,12.55,20.2,19.8,20.0,20.1,19.8,86,87,86,0.316,16.5,16.7,16.3,1.666,1.8,191,15,3.1,0.00002,0.00003,33.1,34.5,50,0,1,0.0,5.60,0.00,0.00
15min,AgWx,bigpiney,439,21NOV2019:06:00:00,23.2,12.55,19.7,19.4,19.5,19.8,19.3,87,87,86,0.315,16.2,16.3,16.0,0,1.0,204,8.5,1.7,0.00002,0.00002,33.1,34.5,50,0,1,0.0,5.60,0.00,0.00
15min,AgWx,bigpiney,439,21NOV2019:06:15:00,22.9,12.55,19.8,19.2,19.2,19.4,19.1,88,89,87,0.315,16.2,16.5,16.1,2.74,0.7,165,9.8,2.7,0.00001,0.00002,33.1,34.4,50,0,1,0.0,5.60,0.00,0.00
15min,AgWx,bigpiney,439,21NOV2019:06:30:00,22.5,12.56,17.7,17.4,18.4,19.3,17.3,88,89,88,0.293,15.5,16.3,14.5,3.639,3.0,169,4.4,4.4,0.00003,0.00004,33.1,34.5,50,0,1,0.0,5.60,0.00,0.00
15min,AgWx,bigpiney,439,21NOV2019:06:45:00,22.1,12.55,17.6,17.1,17.1,17.4,16.9,89,89,88,0.292,14.3,14.6,13.9,2.916,2.3,187,10,3.4,0.00002,0.00003,33.1,34.5,50,0,1,0.0,5.60,0.00,0.00
15min,AgWx,bigpiney,439,21NOV2019:07:00:00,21.8,12.55,19.6,19.0,18.2,19.0,17.1,90,91,89,0.317,15.8,16.3,14.4,4.823,5.2,170,11,7.2,0.00003,0.00004,33.1,34.5,50,0,1,0.0,5.60,0.00,0.00
15min,AgWx,bigpiney,439,21NOV2019:07:15:00,21.8,12.55,20.0,19.6,19.4,19.6,19.0,89,90,88,0.327,16.6,17.1,16.2,6.993,6.6,168,11,11.0,0.00004,0.00005,33.1,34.5,50,1,1,0.0,5.60,0.00,0.00
15min,AgWx,bigpiney,439,21NOV2019:07:30:00,22.0,12.54,20.0,19.8,19.6,19.8,19.5,90,90,89,0.329,17.0,17.2,16.9,7.497,6.6,182,9.2,9.3,0.00004,0.00004,33.1,34.5,50,3,1,0.0,5.60,0.00,0.00
15min,AgWx,bigpiney,439,21NOV2019:07:45:00,22.2,12.56,20.8,20.3,19.9,20.3,19.7,90,90,89,0.337,17.3,17.9,17.0,8.66,6.4,184,9.8,9.1,0.00003,0.00007,33.1,34.5,50,8,1,0.0,5.60,0.00,0.00
15min,AgWx,bigpiney,439,21NOV2019:08:00:00,22.5,12.57,21.2,20.9,20.6,20.9,20.3,89,90,88,0.340,17.8,17.9,17.6,10.5,9.7,174,10,16.1,0.00007,0.00014,33.1,34.5,50,20,1,0.0,5.60,0.00,0.00
15min,AgWx,bigpiney,439,21NOV2019:08:15:00,22.8,12.59,21.2,20.9,20.8,20.9,20.8,88,88,87,0.336,17.7,18.0,17.6,11.84,10.9,172,8.2,15.3,0.00014,0.00022,33.1,34.4,50,29,1,0.0,5.60,0.00,0.00
15min,AgWx,bigpiney,439,21NOV2019:08:30:00,23.1,12.6,21.4,21.0,20.9,21.0,20.9,87,88,87,0.339,17.7,17.9,17.6,9.38,9.7,176,7.5,12.7,0.00017,0.00025,33.1,34.5,50,46,1,0.0,5.60,0.00,0.00